www.pogodaiklimat.ru

Погода и климат >> Архив погоды >> Россия >> Кировская область >> Нагорск


ПОГОДА в Нагорске

  • Прогноз погоды в Нагорске
  • Монитор погоды в Нагорске
  • Климат города

АРХИВ ПОГОДЫ в Нагорске

Время (UTC), дата Ветер
(напр.,м/с)
 
Видим.   Явления Облачность Т
(С)
Тd
(С)
f
(%)
Тe
(С)
Тes
(С)
Комфортность P
(гПа)
Po
(гПа)
Тmin
(С)
Tmax
(С)
R
(мм)
R24
(мм)
S
(см)
03 9.07 СЗ 1-2
{3}
50 км 6/0
[Ac lent Cc]
+17.4 +14.8 85 +18 +21 1002.7 978.1 +14.7
06 9.07 СЗ 1-2
{3}
50 км 9/3 600 м
[Sc Cc]
+19.6 +15.2 76 +23 +30 комфорт 1002.8 978.4
09 9.07 З 1-3
{4}
50 км гроза без осадков 5/3 1000 м
[Cb cap Ci fib]
+22.1 +14.7 63 +25 +36 комфорт 1002.4 978.2
12 9.07 ЮЗ 1-2
{5}
50 км {гроза} 8/5 600 м
[Cu med, cong Ci fib]
+20.4 +16.6 79 +25 +29 комфорт 1002.8 978.5
15 9.07 ЮВ 1-2
{4}
50 км 8/4 600 м
[Cb calv Ac trans Ci fib]
+21.0 +14.7 67 +25 +26 комфорт 1003.7 979.4 +23.9
18 9.07 штиль 0
{2}
50 км 8/4 600 м
[Cb calv Ac trans Ci fib]
+16.8 +13.8 82 +17 +17 1004.9 980.0
21 9.07 ЮВ 1-1
{2}
50 км 8/0
[Ac trans]
+15.1 +13.8 92 +16 +16 1005.3 980.5
00 10.07 штиль 0
{1}
500 м туман ?/? +14.0 +14.0 100 +13 +13 1005.7 980.9
03 10.07 С 1-2
{3}
2000 м дымка {туман} 10/10 210 м
[St]
+15.0 +14.3 96 +15 +15 1006.8 982.0 +13.9
06 10.07 С 2-3
{3}
8000 м слабый ливневой дождь {туман} 10/10 400 м
[Cb calv]
+16.7 +15.1 90 +17 +17 1007.3 982.7
09 10.07 СВ 2-4
{8}
50 км {ливн. осадки} 8/4 600 м
[Cb calv Ci fib]
+19.0 +16.5 85 +21 +28 комфорт 1008.1 983.7
12 10.07 СВ 3-6
{7}
50 км {ливн. осадки} 8/5 600 м
[Cb calv Ci fib]
+22.5 +13.3 56 +25 +29 комфорт 1008.7 984.4
15 10.07 С 6-10
{12}
50 км 8/6 600 м
[Cb calv Ac trans]
+18.5 +13.0 70 +19 +19 1011.0 986.3 +22.7 3
18 10.07 С 3-5
{12}
50 км 10/9 400 м
[Cu hum Cs]
+15.8 +13.3 85 +15 +15 1011.8 986.9
21 10.07 С 3-5
{5}
50 км {ливн. осадки} 9/0
[Ac trans]
+14.9 +12.7 87 +14 +14 1011.8 986.9
00 11.07 СЗ 2-3
{5}
50 км {ливн. осадки} 6/0
[Ac trans]
+13.1 +11.2 88 +12 +12 1011.8 986.7
03 11.07 С 2-5
{5}
50 км 8/0
[Ac trans]
+15.4 +11.1 76 +15 +17 1011.5 986.6 +12.8 0.1
06 11.07 С 4-6
{7}
50 км 10/10 400 м
[Cb calv]
+15.5 +11.0 75 +15 +15 1011.5 986.6
09 11.07 С 3-5
{7}
9000 м слабый ливневой дождь 10/10 360 м
[Cb calv]
+14.8 +12.8 88 +14 +14 1012.1 987.1
12 11.07 СЗ 3-5
{7}
50 км {ливн. осадки} 10/10 420 м
[Cb calv]
+15.8 +13.3 85 +15 +15 1012.0 987.1
15 11.07 СЗ 3-5
{7}
50 км 10/10 400 м
[Cb calv]
+17.0 +13.6 80 +17 +17 1012.4 987.5 +17.2 0.1
18 11.07 СЗ 2-4
{5}
50 км 9/4 600 м
[Sc Ac trans]
+15.3 +14.0 92 +15 +15 1012.9 987.9
21 11.07 С 2-2
{3}
50 км 9/5 600 м
[Cb calv Ac trans]
+15.1 +14.2 94 +15 +15 1011.4 986.5
00 12.07 СЗ 1-1
{3}
500 м туман ?/? +15.8 +14.8 94 +16 +16 1011.5 986.7
03 12.07 С 2-3
{4}
9000 м дымка {ливн. осадки, туман} 10/10 400 м
[St]
+16.5 +15.5 94 +17 +17 1011.6 986.9 +15.1 0.6
06 12.07 С 3-5
{6}
14 км слабый ливневой дождь {туман} 10/10 330 м
[Cb calv]
+17.3 +15.9 91 +17 +17 1011.6 986.9
09 12.07 СВ 2-4
{7}
50 км в посл. час ливневой дождь 10/10 360 м
[Cb calv]
+17.5 +16.2 92 +18 +18 1012.0 987.3
12 12.07 СВ 3-5
{6}
50 км {ливн. осадки} 9/6 600 м
[Sc Ac trans Ci fib]
+20.9 +16.4 75 +25 +27 комфорт 1011.5 987.1
15 12.07 СВ 1-4
{8}
9000 м слабый ливневой дождь 10/10 400 м
[Cb calv]
+19.0 +17.0 88 +22 +22 комфорт 1011.7 987.1 +23.0 2
18 12.07 С 2-3
{4}
50 км {ливн. осадки} 9/6 300 м
[Cb calv Ac trans]
+19.1 +17.3 89 +21 +21 комфорт 1012.2 987.5
21 12.07 С 2-2
{5}
50 км 9/0
[Ac trans]
+17.7 +15.7 88 +18 +18 1011.8 987.1
00 13.07 С 2-3
{3}
50 км 9/0
[Ac trans]
+17.1 +14.1 83 +17 +17 1011.8 987.1
03 13.07 С 2-3
{3}
50 км 8/0
[Ac trans]
+17.5 +14.0 80 +18 +19 1012.4 987.5 +17.1
06 13.07 С 2-4
{4}
50 км 8/0
[Ci]
+22.8 +15.5 63 +27 +36 душно 1011.5 987.3
09 13.07 СВ 3-5
{7}
50 км 10/3 1000 м
[Cu med, cong Ac trans Cs]
+24.3 +12.7 48 +26 +30 жарко 1011.3 987.1
12 13.07 СВ 3-5
{7}
50 км 8/4 1000 м
[Cu med, cong Ci ing]
+24.1 +15.3 58 +27 +31 жарко 1011.1 986.9
15 13.07 СВ 2-4
{6}
50 км в посл. час ливневой дождь 6/4 600 м
[Cb calv Ac trans Ci ing]
+21.3 +15.6 70 +25 +25 комфорт 1011.1 986.7 +25.1 0.1
18 13.07 штиль 0
{4}
50 км {ливн. осадки} 8/3 600 м
[Cb calv Ac trans]
+19.2 +15.7 80 +21 +21 комфорт 1012.1 987.5
21 13.07 СВ 1-2
{4}
50 км 4/0
[Ac trans]
+17.4 +15.5 89 +18 +18 1011.8 987.1
00 14.07 С 1-2
{3}
50 км 3/0
[Ac lent Ci fib]
+15.7 +14.5 93 +16 +16 1012.2 987.4
03 14.07 С 1-2
{3}
50 км 3/0
[Ci fib]
+19.7 +15.7 78 +23 +26 комфорт 1012.2 987.6 +15.6
06 14.07 СВ 1-2
{3}
50 км 8/8 600 м
[Cu med, cong]
+22.7 +16.7 69 +27 +30 душно 1011.5 987.3
09 14.07 СВ 2-4
{5}
50 км 8/8 600 м
[Cu med, cong]
+26.7 +16.8 55 +30 +33 душно 1011.1 987.2
12 14.07 штиль 0
{6}
50 км гроза без осадков 8/6 600 м
[Cb cap Ci ing]
+25.2 +17.4 62 +29 +33 душно 1010.4 986.3
15 14.07 штиль 0
{4}
7000 м слабый ливневой дождь {гроза} 10/8 420 м
[Cb calv Cs]
+18.5 +17.2 92 +19 +20 1011.1 986.5 +27.4 2
18 14.07 штиль 0
{2}
50 км в посл. час ливневой дождь {гроза} 10/5 600 м
[Cb calv Cs]
+18.2 +17.0 93 +19 +19 1011.5 986.8
21 14.07 штиль 0
{2}
4000 м дымка 10/10 180 м
[St]
+17.9 +16.9 94 +18 +18 1011.8 987.1
00 15.07 штиль 0
{1}
500 м туман ?/? +17.4 +17.4 100 +17 +17 1011.8 987.1
03 15.07 штиль 0
{2}
500 м туман ?/? +18.2 +18.2 100 +19 +19 1012.2 987.5 +17.1 0.5
06 15.07 С 1-2
{2}
50 км {туман} 3/3 1000 м
[Cu hum]
+24.4 +18.2 68 +29 +37 душно 1011.7 987.5
09 15.07 штиль 0
{3}
50 км 8/8 600 м
[Cu med, cong]
+27.8 +18.8 58 +33 +37 очень
душно
1011.3 987.5
12 15.07 Ю 1-2
{4}
50 км гроза без осадков {ливн. осадки} 9/8 600 м
[Cb cap Ci ing]
+20.5 +17.0 80 +25 +27 комфорт 1011.8 987.4
15 15.07 штиль 0
{4}
50 км гроза без осадков {ливн. осадки} 9/8 600 м
[Cb cap]
+21.5 +19.0 86 +26 +27 душно 1011.2 886.9 +28.8 1
18 15.07 штиль 0
{3}
50 км {гроза, ливн. осадки} 8/5 600 м
[Sc Ac trans]
+20.5 +18.4 88 +24 +24 комфорт 1012.6 988.1
21 15.07 штиль 0
{1}
500 м туман ?/? +19.5 +18.5 94 +22 +22 комфорт 1012.9 988.3

 

Местоположение метеостанции Нагорск (Кировская область, Россия): широта 59.32 долгота 50.83 высота над уровнем моря 213 м.

В архиве по умолчанию представлена погода в Нагорске за последнюю неделю. Архивные данные за месяц целиком и за предыдущие месяцы, начиная с января 2011 года, Вы можете получить, выбрав интересующий диапазон дат из раскрывающегося списка и нажав кнопку "Ввод!".


*Определитесь, кто Вы:
робот инопланетянин человек

Внимание! Время в таблицах - всемирное. Для получения местного времени необходимо прибавить поправку, которая в Нагорске равна 3 ч.

Смотрите также архив погоды в соседних городах и на ближайших метеорологических станциях:

Погода в Белой Холунице (Кировская область, Россия) (55 км)
Погода в Кирсе (Кировская область, Россия) (81 км)
Погода в Кирове (Кировская область, Россия) (106 км)
Погода в Фаленках (Кировская область, Россия) (116 км)
Погода в Койгородке (Коми, Россия) (126 км)
Погода в Объячеве (Коми, Россия) (134 км)
Погода в Кумене (Кировская область, Россия) (146 км)
Погода в Опарино (Кировская область, Россия) (155 км)
Погода в Усть-Черной (Пермский край, Россия) (163 км)
Погода в Глазове (Удмуртия, Россия) (167 км)

Пояснения к столбцам:

Ветер - указаны скорость ветра в м/с - средняя за 10 мин, порывы в срок и между сроками (в фигурных скобках) и направление, откуда дует ветер: С - северный, СВ - северо-восточный, В - восточный, ЮВ - юго-восточный, Ю - южный, ЮЗ - юго-западный, З - западный, СЗ - северо-западный.
Видимость - горизонтальная дальность видимости в метрах или километрах. При видимости от 1 до 10 км при отсутствии осадков обычно наблюдается дымка, при ухудшении видимости до 1 км и менее - туман. В сухую погоду видимость может ухудшаться дымом, пылью или мглою.
Явления - указаны атмосферные явления, наблюдавшиеся в срок или в последний час перед сроком; фигурными скобками обозначены явления, наблюдавшиеся между сроками (за 1-3 часа до срока); квадратными скобками обозначены град или гололедные отложения с указанием их диаметра в мм.
Облачность - указаны через наклонную черту общая и нижняя облачность в баллах и высота нижней границы облаков в метрах; квадратными скобками обозначены формы облаков: Ci - перистые, Cs - перисто-слоистые, Cc - перисто-кучевые, Ac - высококучевые, As - высокослоистые, Sc - слоисто-кучевые, Ns - слоисто-дождевые, Cu - кучевые, Cb - кучево-дождевые. Подробнее классификацию облаков см. в Атласе облаков (PDF).
T - Температура воздуха - температура, измеренная на высоте 2 м над землей.
Td - Температура точки росы - температура, при понижении до которой содержащийся в воздухе водяной пар достигнет насыщения.
f - Относительная влажность воздуха - влажноcть воздуха, измеренная на высоте 2 м над землей.
Te - Эффективная температура - температура, которую ощущает одетый по сезону человек в тени. Характеристика душности погоды. При расчете учитывается влияние влажности воздуха и скорости ветра на теплоощущения человека.
Tes - Эффективная температура на солнце - температура, которую ощущает человек, с поправкой на солнечный нагрев. Характеристика знойности погоды. Зависит от высоты солнца над горизонтом, облачности и скорости ветра. Ночью, в пасмурную погоду, а также при ветре 12 м/с и более поправка равна нулю.
P - Атмосферное давление - приведенное к уровню моря атмосферное давление.
Po - Атмосферное давление - измеренное на уровне метеостанции атмосферное давление.
Tmin - Минимальная температура - минимум температуры воздуха на высоте 2 м над землей.
Tmax - Максимальная температура - максимум температуры воздуха на высоте 2 м над землей.
R - Количество осадков - Количество выпавших осадков за период времени, мм. При наведении курсора мыши на число - период времени, за который выпало указанное количество осадков.
R24 - Количество осадков - Количество выпавших осадков за 24 часа, мм.
S - Снежный покров - Высота снежного покрова, см. При наведении курсора мыши на число - состояние снежного покрова и степень покрытия местности в баллах.